User: anonymous   Login
Location: Newark
(33.6333°S, 78.8500°W)
Time: 06:14:51
(UTC+00:00)
Language:

Transit 2A - Orbit

View from above orbital plane
View from above orbital plane
View from above satellite
View from above satellite

Ground track
Ground track

The orbit data is extracted from the following two-line orbital elements,

1    45U 60007A   19259.72680660 -.00000054  00000-0  13416-4 0  9992
2    45  66.6962  24.8438 0252902 157.1916 204.0661 14.33649137 83321
Epoch (UTC): 16 September 2019 17:26:36
Eccentricity: 0.0252902
inclination: 66.6962°
perigee height: 598 km
apogee height: 960 km
right ascension of ascending node: 24.8438°
argument of perigee: 157.1916°
revolutions per day: 14.33649137
mean anomaly at epoch: 204.0661°
orbit number at epoch: 8332

The dashed part of the orbit path shows where the satellite is in the earth's shadow,  

DLR